EXS37EJ LEIB-EGHH

Flight info

Callsign EXS37EJ
Flight time 1h 59m
Altitude 36000
Route EPAMA DCT MARTA DCT EBROX DCT UMURE N863 GIROM DCT GONUP DCT MANAK DCT EPAPU UM184 EKRAS UT507 REVTU UY110 ORIST Y110 THRED
Aircraft B738/M-SDE2E3FGHIRWXY/LB1

Departure

Time 2026-05-07 15:24
Airport Ibiza Airport (LEIB)

Arrival

Time 2026-05-07 17:23
Airport Bournemouth Airport (EGHH)
Time Latitude Longitude Altitude Speed Heading
2026-05-07 15:07 38.87490 1.36741 45 ft 0 kts 17°
2026-05-07 15:19 38.87491 1.36741 46 ft 1 kts 17°
2026-05-07 15:19 38.87493 1.36747 46 ft 1 kts 66°
2026-05-07 15:19 38.87485 1.36754 45 ft 3 kts 151°
2026-05-07 15:19 38.87442 1.36780 43 ft 10 kts 162°
2026-05-07 15:20 38.87380 1.36796 38 ft 9 kts 142°
2026-05-07 15:20 38.87312 1.36849 37 ft 14 kts 157°
2026-05-07 15:20 38.87247 1.36774 35 ft 16 kts 242°
2026-05-07 15:20 38.87189 1.36634 33 ft 20 kts 242°
2026-05-07 15:21 38.87117 1.36458 32 ft 24 kts 243°
2026-05-07 15:21 38.87040 1.36266 31 ft 26 kts 243°
2026-05-07 15:21 38.86978 1.36113 29 ft 21 kts 242°
2026-05-07 15:21 38.86906 1.35944 28 ft 16 kts 241°
2026-05-07 15:22 38.86836 1.35822 24 ft 17 kts 190°
2026-05-07 15:22 38.86790 1.35841 25 ft 0 kts 150°
2026-05-07 15:22 38.86783 1.35846 24 ft 4 kts 150°
2026-05-07 15:23 38.86759 1.35864 24 ft 8 kts 151°
2026-05-07 15:23 38.86709 1.35924 25 ft 7 kts 82°
2026-05-07 15:23 38.86717 1.35942 24 ft 0 kts 58°
2026-05-07 15:23 38.86718 1.35943 24 ft 2 kts 58°
2026-05-07 15:24 38.86794 1.36115 27 ft 58 kts 61°
2026-05-07 15:24 38.87099 1.36861 28 ft 129 kts 62°
2026-05-07 15:24 38.87585 1.38073 311 ft 158 kts 65°
2026-05-07 15:24 38.88037 1.39360 1100 ft 168 kts 66°
2026-05-07 15:25 38.88450 1.40866 1797 ft 179 kts 78°
2026-05-07 15:25 38.88707 1.42512 2371 ft 198 kts 78°
2026-05-07 15:25 38.89007 1.44284 2882 ft 204 kts 78°
2026-05-07 15:25 38.89327 1.46080 3473 ft 210 kts 77°
2026-05-07 15:26 38.89666 1.47921 4069 ft 215 kts 76°
2026-05-07 15:26 38.90022 1.49821 4716 ft 221 kts 76°
2026-05-07 15:26 38.90388 1.51765 5436 ft 226 kts 76°
2026-05-07 15:26 38.90829 1.53715 6221 ft 229 kts 63°
2026-05-07 15:27 38.91773 1.55373 6887 ft 238 kts 48°
2026-05-07 15:27 38.93061 1.56908 7119 ft 266 kts 42°
2026-05-07 15:27 38.94477 1.58478 7737 ft 276 kts 42°
2026-05-07 15:27 38.95935 1.60110 8579 ft 279 kts 43°
2026-05-07 15:28 38.97400 1.61776 9401 ft 285 kts 43°
2026-05-07 15:28 38.98895 1.63489 10137 ft 290 kts 44°
2026-05-07 15:28 39.00530 1.65022 10904 ft 298 kts 25°
2026-05-07 15:28 39.02556 1.65667 11810 ft 301 kts
2026-05-07 15:29 39.04656 1.65934 12671 ft 307 kts
2026-05-07 15:29 39.06809 1.66184 13459 ft 314 kts
2026-05-07 15:29 39.08990 1.66457 13807 ft 314 kts
2026-05-07 15:29 39.11220 1.66040 13925 ft 345 kts 340°
2026-05-07 15:30 39.13471 1.64765 13899 ft 361 kts 334°
2026-05-07 15:30 39.15741 1.63363 13911 ft 364 kts 334°
2026-05-07 15:30 39.18035 1.61968 14129 ft 363 kts 335°
2026-05-07 15:30 39.20355 1.60593 14563 ft 370 kts 335°
2026-05-07 15:31 39.22711 1.59228 15234 ft 372 kts 336°
2026-05-07 15:31 39.25095 1.57867 15923 ft 375 kts 336°
2026-05-07 15:31 39.27506 1.56503 16541 ft 380 kts 336°
2026-05-07 15:31 39.29949 1.55128 17151 ft 385 kts 335°
2026-05-07 15:32 39.32419 1.53738 17753 ft 389 kts 335°
2026-05-07 15:32 39.34882 1.52356 18374 ft 392 kts 334°
2026-05-07 15:32 39.37383 1.50952 19024 ft 393 kts 333°
2026-05-07 15:32 39.39907 1.49529 19535 ft 398 kts 333°
2026-05-07 15:33 39.42458 1.48089 20001 ft 403 kts 333°
2026-05-07 15:33 39.45051 1.46625 20520 ft 407 kts 333°
2026-05-07 15:33 39.47661 1.45151 21051 ft 410 kts 333°
2026-05-07 15:33 39.50296 1.43663 21550 ft 414 kts 333°
2026-05-07 15:34 39.52960 1.42157 22037 ft 419 kts 333°
2026-05-07 15:34 39.55611 1.40657 22527 ft 422 kts 333°
2026-05-07 15:34 39.58325 1.39120 23010 ft 426 kts 333°
2026-05-07 15:34 39.61125 1.37765 23350 ft 438 kts 345°
2026-05-07 15:35 39.64169 1.37258 23832 ft 440 kts 352°
2026-05-07 15:35 39.67212 1.36917 24389 ft 440 kts 353°
2026-05-07 15:35 39.70285 1.36579 24646 ft 447 kts 352°
2026-05-07 15:35 39.73402 1.36221 24944 ft 452 kts 352°
2026-05-07 15:36 39.76542 1.35840 25367 ft 454 kts 352°
2026-05-07 15:36 39.79706 1.35440 25798 ft 456 kts 351°
2026-05-07 15:36 39.82865 1.35028 26229 ft 457 kts 351°
2026-05-07 15:36 39.86032 1.34609 26640 ft 459 kts 351°
2026-05-07 15:37 39.89222 1.34184 26953 ft 463 kts 351°
2026-05-07 15:37 39.92450 1.33753 27253 ft 467 kts 351°
2026-05-07 15:37 39.95694 1.33320 27611 ft 470 kts 351°
2026-05-07 15:37 39.98920 1.32890 27986 ft 471 kts 351°
2026-05-07 15:38 40.02182 1.32456 28321 ft 474 kts 351°
2026-05-07 15:38 40.05483 1.32016 28582 ft 479 kts 351°
2026-05-07 15:38 40.08826 1.31570 28758 ft 485 kts 351°
2026-05-07 15:38 40.12189 1.31121 29109 ft 487 kts 351°
2026-05-07 15:39 40.15568 1.30670 29515 ft 487 kts 351°
2026-05-07 15:39 40.18956 1.30218 29848 ft 489 kts 351°
2026-05-07 15:39 40.22322 1.29767 30046 ft 494 kts 351°
2026-05-07 15:39 40.25759 1.29306 30252 ft 497 kts 350°
2026-05-07 15:40 40.29208 1.28844 30525 ft 498 kts 350°
2026-05-07 15:40 40.32658 1.28382 30874 ft 498 kts 350°
2026-05-07 15:40 40.36099 1.27921 31270 ft 496 kts 350°
2026-05-07 15:40 40.39529 1.27459 31621 ft 495 kts 349°
2026-05-07 15:41 40.42964 1.26994 31880 ft 496 kts 349°
2026-05-07 15:41 40.46407 1.26527 32114 ft 498 kts 349°
2026-05-07 15:41 40.49857 1.26060 32417 ft 498 kts 349°
2026-05-07 15:41 40.53263 1.25598 32754 ft 498 kts 349°
2026-05-07 15:42 40.56752 1.25125 33080 ft 497 kts 349°
2026-05-07 15:42 40.60155 1.24663 33354 ft 498 kts 349°
2026-05-07 15:42 40.63606 1.24193 33597 ft 499 kts 349°
2026-05-07 15:42 40.67060 1.23723 33875 ft 499 kts 349°
2026-05-07 15:43 40.70506 1.23254 34164 ft 498 kts 349°
2026-05-07 15:43 40.73945 1.22785 34498 ft 495 kts 349°
2026-05-07 15:43 40.77362 1.22318 34881 ft 491 kts 349°
2026-05-07 15:43 40.80743 1.21853 35266 ft 486 kts 349°
2026-05-07 15:44 40.84102 1.21391 35646 ft 482 kts 349°
2026-05-07 15:44 40.87426 1.20931 35970 ft 480 kts 348°
2026-05-07 15:44 40.94133 1.19997 35944 ft 486 kts 349°
2026-05-07 15:45 41.00845 1.19067 35947 ft 484 kts 349°
2026-05-07 15:45 41.07511 1.18144 35953 ft 480 kts 348°
2026-05-07 15:46 41.17418 1.16797 35962 ft 479 kts 350°
2026-05-07 15:47 41.24072 1.16119 35982 ft 478 kts 351°
2026-05-07 15:47 41.30721 1.15451 35965 ft 479 kts 350°
2026-05-07 15:48 41.37356 1.14762 35960 ft 479 kts 350°
2026-05-07 15:48 41.43967 1.14079 35956 ft 480 kts 351°
2026-05-07 15:49 41.50639 1.13390 35960 ft 481 kts 351°
2026-05-07 15:49 41.57321 1.12688 35965 ft 481 kts 350°
2026-05-07 15:50 41.64009 1.11943 35935 ft 481 kts 350°
2026-05-07 15:50 41.70676 1.11204 35928 ft 481 kts 350°
2026-05-07 15:51 41.77322 1.10502 35938 ft 480 kts 351°
2026-05-07 15:51 41.83972 1.09812 35912 ft 479 kts 351°
2026-05-07 15:52 41.90614 1.09118 35928 ft 475 kts 351°
2026-05-07 15:52 41.97209 1.08422 35902 ft 473 kts 351°
2026-05-07 15:53 42.03710 1.07734 35917 ft 471 kts 351°
2026-05-07 15:53 42.10239 1.07042 35924 ft 468 kts 351°
2026-05-07 15:54 42.16732 1.06350 35913 ft 467 kts 351°
2026-05-07 15:54 42.23212 1.05639 35936 ft 466 kts 351°
2026-05-07 15:55 42.29630 1.04930 35939 ft 465 kts 351°
2026-05-07 15:55 42.36091 1.04218 35945 ft 464 kts 351°
2026-05-07 15:56 42.42549 1.03505 35947 ft 466 kts 351°
2026-05-07 15:56 42.48996 1.02801 35961 ft 466 kts 351°
2026-05-07 15:57 42.55466 1.02105 35940 ft 467 kts 351°
2026-05-07 15:57 42.61952 1.01399 35955 ft 467 kts 351°
2026-05-07 15:58 42.68441 1.00690 35939 ft 469 kts 351°
2026-05-07 15:58 42.74877 0.99987 35928 ft 470 kts 351°
2026-05-07 15:59 42.81230 0.98662 35946 ft 464 kts 341°
2026-05-07 15:59 42.87462 0.96429 35901 ft 463 kts 340°
2026-05-07 16:00 42.93663 0.94172 35958 ft 461 kts 340°
2026-05-07 16:00 42.99895 0.91983 35967 ft 462 kts 341°
2026-05-07 16:01 43.06137 0.89826 35964 ft 464 kts 341°
2026-05-07 16:01 43.12383 0.87666 35949 ft 465 kts 341°
2026-05-07 16:02 43.18671 0.85484 35932 ft 466 kts 341°
2026-05-07 16:02 43.24956 0.83297 35954 ft 465 kts 341°
2026-05-07 16:03 43.31225 0.81110 35935 ft 464 kts 341°
2026-05-07 16:03 43.37471 0.78926 35943 ft 463 kts 341°
2026-05-07 16:04 43.43673 0.76753 35954 ft 461 kts 341°
2026-05-07 16:04 43.49727 0.74029 35956 ft 454 kts 333°
2026-05-07 16:05 43.55511 0.70559 35947 ft 452 kts 332°
2026-05-07 16:05 43.61265 0.67040 35942 ft 452 kts 332°
2026-05-07 16:06 43.67035 0.63577 35945 ft 451 kts 332°
2026-05-07 16:06 43.72792 0.60159 35943 ft 451 kts 332°
2026-05-07 16:07 43.77590 0.57315 35941 ft 450 kts 332°
2026-05-07 16:07 43.83361 0.53889 35958 ft 450 kts 333°
2026-05-07 16:08 43.89122 0.50460 35941 ft 451 kts 332°
2026-05-07 16:08 43.94866 0.47032 35947 ft 452 kts 332°
2026-05-07 16:09 44.00647 0.43575 35946 ft 453 kts 332°
2026-05-07 16:09 44.06440 0.40103 35949 ft 453 kts 333°
2026-05-07 16:10 44.12214 0.36636 35954 ft 454 kts 333°
2026-05-07 16:10 44.18026 0.33137 35945 ft 456 kts 332°
2026-05-07 16:11 44.23857 0.29621 35943 ft 456 kts 333°
2026-05-07 16:11 44.29677 0.26104 35944 ft 456 kts 332°
2026-05-07 16:12 44.35499 0.22578 35945 ft 456 kts 332°
2026-05-07 16:12 44.41282 0.19067 35934 ft 455 kts 332°
2026-05-07 16:13 44.47092 0.15532 35946 ft 454 kts 332°
2026-05-07 16:13 44.52898 0.11992 35942 ft 454 kts 332°
2026-05-07 16:14 44.58687 0.08455 35938 ft 453 kts 332°
2026-05-07 16:14 44.64467 0.04915 35951 ft 453 kts 332°
2026-05-07 16:15 44.70242 0.01371 35949 ft 452 kts 332°
2026-05-07 16:15 44.75881 -0.02096 35945 ft 452 kts 332°
2026-05-07 16:16 44.81648 -0.05652 35944 ft 452 kts 332°
2026-05-07 16:16 44.87414 -0.09214 35945 ft 451 kts 332°
2026-05-07 16:17 44.93175 -0.12780 35945 ft 451 kts 332°
2026-05-07 16:17 44.98897 -0.16330 35940 ft 452 kts 332°
2026-05-07 16:18 45.04635 -0.19899 35962 ft 452 kts 332°
2026-05-07 16:18 45.10408 -0.23496 35934 ft 453 kts 332°
2026-05-07 16:19 45.16174 -0.27097 35955 ft 453 kts 332°
2026-05-07 16:19 45.21952 -0.30714 35955 ft 453 kts 332°
2026-05-07 16:20 45.27727 -0.34337 35940 ft 454 kts 332°
2026-05-07 16:20 45.33491 -0.37961 35961 ft 453 kts 332°
2026-05-07 16:21 45.39267 -0.41601 35944 ft 453 kts 332°
2026-05-07 16:21 45.45002 -0.45223 35937 ft 453 kts 332°
2026-05-07 16:22 45.50758 -0.48866 35951 ft 453 kts 332°
2026-05-07 16:22 45.56523 -0.52523 35948 ft 452 kts 332°
2026-05-07 16:23 45.62240 -0.56158 35948 ft 452 kts 332°
2026-05-07 16:23 45.67978 -0.59815 35938 ft 451 kts 332°
2026-05-07 16:24 45.73704 -0.63472 35957 ft 450 kts 332°
2026-05-07 16:24 45.79415 -0.67128 35958 ft 449 kts 332°
2026-05-07 16:25 45.85124 -0.70791 35947 ft 449 kts 332°
2026-05-07 16:25 45.90819 -0.74453 35961 ft 448 kts 332°
2026-05-07 16:26 45.96477 -0.78100 35956 ft 448 kts 332°
2026-05-07 16:26 46.02164 -0.81775 35960 ft 448 kts 332°
2026-05-07 16:27 46.07853 -0.85458 35954 ft 448 kts 332°
2026-05-07 16:27 46.13544 -0.89151 35960 ft 448 kts 332°
2026-05-07 16:28 46.19235 -0.92852 35967 ft 449 kts 332°
2026-05-07 16:28 46.25201 -0.95593 36021 ft 453 kts 345°
2026-05-07 16:29 46.31400 -0.97410 35958 ft 456 kts 345°
2026-05-07 16:29 46.37627 -0.99227 35963 ft 456 kts 345°
2026-05-07 16:30 46.43757 -1.01077 35954 ft 457 kts 345°
2026-05-07 16:30 46.49941 -1.02978 35969 ft 457 kts 345°
2026-05-07 16:31 46.56140 -1.04896 35979 ft 456 kts 344°
2026-05-07 16:31 46.62365 -1.06825 35971 ft 457 kts 345°
2026-05-07 16:32 46.68578 -1.08752 35963 ft 456 kts 345°
2026-05-07 16:32 46.74759 -1.10674 35968 ft 455 kts 345°
2026-05-07 16:33 46.80960 -1.12607 35970 ft 455 kts 345°
2026-05-07 16:33 46.87150 -1.14541 35956 ft 454 kts 345°
2026-05-07 16:34 46.93298 -1.16466 35974 ft 453 kts 345°
2026-05-07 16:34 46.99461 -1.18401 35963 ft 453 kts 344°
2026-05-07 16:35 47.05626 -1.20341 35967 ft 452 kts 344°
2026-05-07 16:35 47.11780 -1.22282 35971 ft 452 kts 344°
2026-05-07 16:36 47.17952 -1.24233 35973 ft 452 kts 345°
2026-05-07 16:36 47.24074 -1.26173 35973 ft 452 kts 345°
2026-05-07 16:37 47.30229 -1.28129 35963 ft 452 kts 345°
2026-05-07 16:37 47.36381 -1.30087 35971 ft 452 kts 345°
2026-05-07 16:38 47.42527 -1.32049 35965 ft 452 kts 345°
2026-05-07 16:38 47.48694 -1.34022 35965 ft 452 kts 345°
2026-05-07 16:39 47.54808 -1.35983 35972 ft 452 kts 345°
2026-05-07 16:39 47.60958 -1.37960 35971 ft 452 kts 345°
2026-05-07 16:40 47.67109 -1.39942 35969 ft 452 kts 345°
2026-05-07 16:40 47.73278 -1.41579 35924 ft 456 kts 353°
2026-05-07 16:40 47.76439 -1.41829 36056 ft 453 kts 355°
2026-05-07 16:41 47.79595 -1.41994 35993 ft 455 kts 355°
2026-05-07 16:41 47.85929 -1.42345 35994 ft 455 kts 355°
2026-05-07 16:42 47.92265 -1.42798 35995 ft 454 kts 354°
2026-05-07 16:42 47.98591 -1.43286 35977 ft 455 kts 354°
2026-05-07 16:43 48.04904 -1.43764 35999 ft 454 kts 354°
2026-05-07 16:43 48.11178 -1.44211 35979 ft 454 kts 355°
2026-05-07 16:44 48.17492 -1.44655 35990 ft 453 kts 355°
2026-05-07 16:44 48.23798 -1.45104 35993 ft 453 kts 355°
2026-05-07 16:45 48.30101 -1.45555 35989 ft 452 kts 355°
2026-05-07 16:45 48.36349 -1.46004 35978 ft 450 kts 355°
2026-05-07 16:46 48.42545 -1.46448 35428 ft 441 kts 355°
2026-05-07 16:46 48.45582 -1.46667 35210 ft 433 kts 355°
2026-05-07 16:46 48.48555 -1.46881 34742 ft 432 kts 355°
2026-05-07 16:46 48.51559 -1.47100 34399 ft 428 kts 355°
2026-05-07 16:47 48.54528 -1.47315 34009 ft 426 kts 355°
2026-05-07 16:47 48.57498 -1.47531 33562 ft 423 kts 355°
2026-05-07 16:47 48.60378 -1.47740 33210 ft 418 kts 355°
2026-05-07 16:47 48.63280 -1.47951 32790 ft 416 kts 355°
2026-05-07 16:48 48.66157 -1.48160 32467 ft 411 kts 355°
2026-05-07 16:48 48.69012 -1.48368 32050 ft 409 kts 355°
2026-05-07 16:48 48.71837 -1.48574 31715 ft 405 kts 355°
2026-05-07 16:48 48.74644 -1.48780 31337 ft 402 kts 355°
2026-05-07 16:49 48.77431 -1.48984 30989 ft 399 kts 355°
2026-05-07 16:49 48.80196 -1.49186 30639 ft 397 kts 355°
2026-05-07 16:49 48.82951 -1.49389 30288 ft 394 kts 354°
2026-05-07 16:49 48.85685 -1.49589 29922 ft 392 kts 354°
2026-05-07 16:50 48.88398 -1.49788 29491 ft 389 kts 354°
2026-05-07 16:50 48.91040 -1.50138 29159 ft 383 kts 347°
2026-05-07 16:50 48.93625 -1.50892 28926 ft 374 kts 345°
2026-05-07 16:50 48.96170 -1.51739 28482 ft 373 kts 344°
2026-05-07 16:51 48.98691 -1.52602 28200 ft 368 kts 344°
2026-05-07 16:51 49.01175 -1.53447 27794 ft 366 kts 345°
2026-05-07 16:51 49.03659 -1.54280 27460 ft 363 kts 345°
2026-05-07 16:51 49.06128 -1.55095 27117 ft 361 kts 345°
2026-05-07 16:52 49.08585 -1.55899 26757 ft 360 kts 345°
2026-05-07 16:52 49.10997 -1.56684 26426 ft 357 kts 345°
2026-05-07 16:52 49.13422 -1.57472 26083 ft 356 kts 345°
2026-05-07 16:52 49.15841 -1.58256 25728 ft 354 kts 345°
2026-05-07 16:53 49.18242 -1.59035 25412 ft 352 kts 345°
2026-05-07 16:53 49.20637 -1.59812 25063 ft 351 kts 345°
2026-05-07 16:53 49.22217 -1.60325 24843 ft 349 kts 345°
2026-05-07 16:53 49.24596 -1.61098 24514 ft 348 kts 345°
2026-05-07 16:54 49.26961 -1.61868 24183 ft 347 kts 345°
2026-05-07 16:54 49.29317 -1.62635 23859 ft 345 kts 345°
2026-05-07 16:54 49.31665 -1.63400 23512 ft 345 kts 345°
2026-05-07 16:54 49.34011 -1.64166 23100 ft 344 kts 345°
2026-05-07 16:55 49.36347 -1.64929 22776 ft 341 kts 345°
2026-05-07 16:55 49.38667 -1.65687 22431 ft 339 kts 345°
2026-05-07 16:55 49.40973 -1.66442 22096 ft 337 kts 345°
2026-05-07 16:55 49.43257 -1.67190 21776 ft 335 kts 345°
2026-05-07 16:56 49.45526 -1.67934 21457 ft 332 kts 345°
2026-05-07 16:56 49.47759 -1.68667 21138 ft 331 kts 345°
2026-05-07 16:56 49.52240 -1.70140 20492 ft 327 kts 345°
2026-05-07 16:57 49.54457 -1.70870 20198 ft 325 kts 345°
2026-05-07 16:57 49.56670 -1.71599 19886 ft 324 kts 345°
2026-05-07 16:57 49.58873 -1.72325 19559 ft 323 kts 345°
2026-05-07 16:57 49.61068 -1.73027 19252 ft 322 kts 346°
2026-05-07 16:58 49.63266 -1.73678 18939 ft 320 kts 347°
2026-05-07 16:58 49.65454 -1.74311 18631 ft 319 kts 347°
2026-05-07 16:58 49.67636 -1.74942 18321 ft 318 kts 347°
2026-05-07 16:58 49.69812 -1.75575 17968 ft 317 kts 347°
2026-05-07 16:59 49.71979 -1.76208 17630 ft 316 kts 347°
2026-05-07 16:59 49.74110 -1.76832 17312 ft 314 kts 347°
2026-05-07 16:59 49.76249 -1.77461 17022 ft 312 kts 346°
2026-05-07 16:59 49.78383 -1.78090 16710 ft 310 kts 346°
2026-05-07 17:00 49.80502 -1.78715 16381 ft 309 kts 347°
2026-05-07 17:00 49.82610 -1.79338 16087 ft 307 kts 347°
2026-05-07 17:00 49.84700 -1.79956 15790 ft 305 kts 346°
2026-05-07 17:00 49.86762 -1.80566 15487 ft 304 kts 346°
2026-05-07 17:01 49.88836 -1.81181 15189 ft 302 kts 347°
2026-05-07 17:01 49.90902 -1.81794 14903 ft 301 kts 347°
2026-05-07 17:01 49.92959 -1.82405 14594 ft 300 kts 347°
2026-05-07 17:01 49.95011 -1.83015 14293 ft 299 kts 346°
2026-05-07 17:02 49.97051 -1.83621 13998 ft 298 kts 347°
2026-05-07 17:02 49.99085 -1.84226 13685 ft 297 kts 347°
2026-05-07 17:02 50.01143 -1.84523 13288 ft 301 kts
2026-05-07 17:02 50.03218 -1.84251 13111 ft 295 kts
2026-05-07 17:03 50.05242 -1.83887 12707 ft 297 kts
2026-05-07 17:03 50.07289 -1.83543 12487 ft 292 kts
2026-05-07 17:03 50.09316 -1.83238 12143 ft 293 kts
2026-05-07 17:03 50.11341 -1.82952 11857 ft 291 kts
2026-05-07 17:04 50.13357 -1.82673 11573 ft 290 kts
2026-05-07 17:04 50.15344 -1.82166 11256 ft 291 kts 12°
2026-05-07 17:04 50.17283 -1.81316 11028 ft 288 kts 15°
2026-05-07 17:04 50.19199 -1.80401 10720 ft 287 kts 15°
2026-05-07 17:05 50.21109 -1.79490 10439 ft 286 kts 14°
2026-05-07 17:05 50.23014 -1.78594 10159 ft 285 kts 14°
2026-05-07 17:05 50.24894 -1.77723 10057 ft 277 kts 14°
2026-05-07 17:05 50.26723 -1.76885 9714 ft 278 kts 14°
2026-05-07 17:06 50.28577 -1.76042 9461 ft 275 kts 14°
2026-05-07 17:06 50.30410 -1.75212 9187 ft 274 kts 14°
2026-05-07 17:06 50.32238 -1.74386 8916 ft 272 kts 14°
2026-05-07 17:06 50.34052 -1.73567 8647 ft 270 kts 14°
2026-05-07 17:07 50.35851 -1.72755 8371 ft 266 kts 14°
2026-05-07 17:07 50.37611 -1.71960 8112 ft 260 kts 14°
2026-05-07 17:07 50.39339 -1.71179 7849 ft 255 kts 14°
2026-05-07 17:07 50.41032 -1.70414 7602 ft 250 kts 14°
2026-05-07 17:08 50.42666 -1.69676 7338 ft 244 kts 14°
2026-05-07 17:08 50.44294 -1.68940 7114 ft 242 kts 14°
2026-05-07 17:08 50.45893 -1.68216 7041 ft 236 kts 14°
2026-05-07 17:08 50.47479 -1.67498 7061 ft 236 kts 14°
2026-05-07 17:09 50.49062 -1.66781 7019 ft 236 kts 14°
2026-05-07 17:09 50.50599 -1.65993 7031 ft 235 kts 20°
2026-05-07 17:09 50.52102 -1.64967 7039 ft 234 kts 22°
2026-05-07 17:09 50.53587 -1.63908 7041 ft 234 kts 22°
2026-05-07 17:10 50.55079 -1.62846 7034 ft 235 kts 22°
2026-05-07 17:10 50.56573 -1.61789 7039 ft 235 kts 22°
2026-05-07 17:10 50.58093 -1.60827 7014 ft 235 kts 14°
2026-05-07 17:10 50.59683 -1.60356 7044 ft 232 kts
2026-05-07 17:11 50.61294 -1.60423 7034 ft 232 kts 349°
2026-05-07 17:11 50.62865 -1.61035 7043 ft 230 kts 336°
2026-05-07 17:11 50.64289 -1.62146 7045 ft 229 kts 326°
2026-05-07 17:11 50.65528 -1.63694 6848 ft 235 kts 314°
2026-05-07 17:12 50.66575 -1.65691 6580 ft 235 kts 303°
2026-05-07 17:12 50.67443 -1.67856 6369 ft 232 kts 301°
2026-05-07 17:12 50.68273 -1.70027 6104 ft 230 kts 301°
2026-05-07 17:12 50.69079 -1.72162 5866 ft 223 kts 301°
2026-05-07 17:13 50.69851 -1.74232 5611 ft 216 kts 300°
2026-05-07 17:13 50.70595 -1.76242 5355 ft 209 kts 300°
2026-05-07 17:13 50.71315 -1.78207 5083 ft 205 kts 301°
2026-05-07 17:13 50.72026 -1.80169 4700 ft 208 kts 300°
2026-05-07 17:14 50.72756 -1.82177 4272 ft 212 kts 300°
2026-05-07 17:14 50.73494 -1.84193 3994 ft 207 kts 300°
2026-05-07 17:14 50.74182 -1.86075 3987 ft 191 kts 298°
2026-05-07 17:14 50.74675 -1.87982 3992 ft 187 kts 283°
2026-05-07 17:15 50.74837 -1.90006 3963 ft 184 kts 266°
2026-05-07 17:15 50.74656 -1.91966 3975 ft 179 kts 250°
2026-05-07 17:15 50.74148 -1.93786 3812 ft 185 kts 238°
2026-05-07 17:15 50.73479 -1.95529 3554 ft 184 kts 235°
2026-05-07 17:16 50.72823 -1.97252 3298 ft 182 kts 235°
2026-05-07 17:16 50.72175 -1.98953 3049 ft 179 kts 235°
2026-05-07 17:16 50.71571 -2.00521 2980 ft 166 kts 237°
2026-05-07 17:16 50.70960 -2.02114 2996 ft 171 kts 236°
2026-05-07 17:17 50.70353 -2.03699 2970 ft 166 kts 236°
2026-05-07 17:17 50.69773 -2.05236 2949 ft 161 kts 242°
2026-05-07 17:17 50.69450 -2.06916 2982 ft 166 kts 258°
2026-05-07 17:17 50.69446 -2.08771 2977 ft 171 kts 277°
2026-05-07 17:18 50.69783 -2.10589 2967 ft 176 kts 293°
2026-05-07 17:18 50.70440 -2.12205 2968 ft 177 kts 310°
2026-05-07 17:18 50.71359 -2.13477 2974 ft 173 kts 327°
2026-05-07 17:18 50.72469 -2.14099 2927 ft 169 kts
2026-05-07 17:19 50.73462 -2.13168 3000 ft 182 kts 62°
2026-05-07 17:19 50.73748 -2.11295 3006 ft 175 kts 88°
2026-05-07 17:19 50.73898 -2.09403 2973 ft 176 kts 82°
2026-05-07 17:19 50.74164 -2.07512 2853 ft 180 kts 79°
2026-05-07 17:20 50.74482 -2.05573 2636 ft 178 kts 79°
2026-05-07 17:20 50.74786 -2.03727 2400 ft 174 kts 79°
2026-05-07 17:20 50.75087 -2.01904 2178 ft 168 kts 79°
2026-05-07 17:20 50.75373 -2.00164 1928 ft 160 kts 78°
2026-05-07 17:21 50.75648 -1.98501 1758 ft 157 kts 79°
2026-05-07 17:21 50.75927 -1.96804 1552 ft 159 kts 80°
2026-05-07 17:21 50.76198 -1.95174 1369 ft 142 kts 79°
2026-05-07 17:21 50.76439 -1.93705 1124 ft 138 kts 79°
2026-05-07 17:22 50.76686 -1.92220 1001 ft 146 kts 81°
2026-05-07 17:22 50.76945 -1.90652 789 ft 146 kts 78°
2026-05-07 17:22 50.77203 -1.89095 563 ft 146 kts 81°
2026-05-07 17:22 50.77464 -1.87559 374 ft 146 kts 79°
2026-05-07 17:23 50.77721 -1.86013 182 ft 143 kts 77°
2026-05-07 17:23 50.77960 -1.84560 45 ft 129 kts 75°
2026-05-07 17:23 50.78132 -1.83505 45 ft 70 kts 75°
2026-05-07 17:23 50.78199 -1.83098 44 ft 20 kts 80°
2026-05-07 17:24 50.78151 -1.83048 42 ft 10 kts 194°
2026-05-07 17:24 50.78105 -1.83131 40 ft 9 kts 238°
2026-05-07 17:24 50.78085 -1.83179 41 ft 1 kts 234°
2026-05-07 17:24 50.78075 -1.83202 41 ft 4 kts 235°
2026-05-07 17:25 50.78056 -1.83247 42 ft 6 kts 237°
2026-05-07 17:25 50.78035 -1.83313 42 ft 8 kts 244°
2026-05-07 17:25 50.78005 -1.83409 42 ft 11 kts 242°
2026-05-07 17:25 50.77939 -1.83487 41 ft 14 kts 187°
2026-05-07 17:26 50.77879 -1.83455 39 ft 6 kts 106°
2026-05-07 17:26 50.77886 -1.83386 40 ft 0 kts 85°